Wind_Speed
4 4 6 7 8 9 9 10 11 12 13 13 13 14 15 15 16 16 15 14 15 16 15 14 13 14 15 15 15 15 15 17 18 19 20 22 22 22 22 22 21 19
6 7 8 9 10 10 9 10 11 12 12 12 13 15 15 14 15 15 13 12 13 14 15 14 14 13 13 14 15 15 16 17 18 18 19 20 21 21 21 21 20 19
7 8 9 10 12 12 11 11 12 12 13 13 13 14 14 13 15 14 13 13 12 12 12 13 14 13 13 13 14 16 17 17 18 18 18 19 19 19 19 18 18 19
8 9 10 11 13 13 12 12 14 14 14 14 14 14 13 13 14 14 14 15 14 14 14 14 15 15 15 14 14 15 16 17 18 18 18 18 17 17 17 16 17 18
9 11 11 12 13 12 12 13 14 15 15 15 15 15 15 14 15 15 16 16 16 15 15 15 14 14 14 14 14 15 16 17 18 17 18 18 18 18 18 17 18 20
10 11 11 12 12 12 13 13 13 14 14 14 14 15 15 14 15 15 15 15 15 14 14 13 13 12 12 13 13 14 16 17 18 18 18 19 19 19 19 19 20 21
11 11 11 12 12 12 12 12 12 13 13 14 14 15 15 15 16 15 14 15 15 15 15 15 14 13 12 13 14 14 15 16 18 18 19 19 19 21 21 20 21 22
11 11 11 12 11 11 12 12 13 14 15 16 16 16 16 16 17 16 16 16 17 17 17 17 16 14 13 13 14 14 15 16 17 18 19 19 19 20 20 20 21 23
11 10 11 11 11 12 13 14 15 15 16 16 16 16 16 16 16 17 17 18 18 18 17 16 16 15 14 14 14 15 15 16 17 18 18 19 19 19 20 20 21 22
10 10 11 11 12 14 14 14 14 15 16 16 17 17 16 16 16 17 18 18 17 17 16 16 16 16 15 15 16 16 16 16 17 18 18 19 19 20 20 20 21 22
10 11 11 11 13 13 13 13 14 15 16 17 17 17 17 17 18 18 18 18 18 17 17 17 17 17 16 16 16 16 17 18 18 18 19 19 20 20 21 21 21 22
11 11 10 12 13 13 13 13 14 15 16 17 18 18 18 18 18 18 19 19 19 18 18 19 18 18 17 17 17 17 17 18 19 19 19 19 20 21 21 21 21 21
11 11 11 12 13 12 13 13 14 15 15 17 18 18 19 19 19 19 19 19 19 19 19 19 19 19 18 18 17 17 18 19 20 20 20 20 20 21 21 21 21 21
12 12 13 13 13 13 13 13 14 15 15 17 18 18 18 19 19 19 19 20 20 20 20 20 20 20 19 19 18 17 18 19 19 19 20 21 21 21 20 21 22 21
12 12 12 13 13 13 13 14 15 16 16 17 18 18 18 18 18 19 19 21 21 21 20 20 20 20 20 19 19 18 18 19 19 19 21 21 21 21 21 21 22 22
12 12 12 12 12 12 13 15 16 17 18 17 18 18 19 18 19 19 21 21 22 21 21 21 21 21 21 20 19 18 19 20 20 21 21 21 22 22 22 22 22 23
13 13 12 11 11 12 14 15 16 17 18 18 18 19 19 19 20 21 22 22 22 21 22 22 23 22 21 20 19 18 19 20 21 22 22 22 22 22 23 23 23 23
14 13 11 11 12 13 14 15 15 17 18 19 19 18 19 19 21 22 23 22 22 22 22 23 23 22 21 20 20 19 19 20 21 22 22 23 23 23 24 24 24 25
14 12 11 12 13 13 14 15 16 17 18 19 20 19 19 20 21 22 22 22 22 23 23 23 23 23 22 22 21 21 20 20 21 22 23 23 23 24 24 25 25 25
14 11 11 13 13 14 14 15 16 18 19 20 20 20 21 21 22 22 22 23 23 23 23 24 24 24 24 23 22 22 21 20 21 21 22 22 22 23 23 24 25 25
11 11 12 14 14 15 15 15 17 18 20 20 21 21 21 21 22 22 23 23 23 23 24 25 25 25 24 23 23 22 21 21 21 22 23 23 23 23 23 23 24 25
10 12 14 15 15 15 15 17 18 19 20 21 21 21 21 21 22 22 24 24 24 24 24 26 27 25 24 23 23 22 21 21 22 23 23 24 24 23 23 23 24 25
11 14 15 15 15 16 17 18 19 20 21 21 22 22 22 23 23 24 24 25 24 24 24 26 27 26 24 24 23 22 22 22 23 23 24 24 24 23 23 23 23 25
14 15 15 14 15 17 19 20 21 22 22 22 23 24 25 25 26 26 26 25 24 24 24 25 26 25 23 24 24 23 22 22 22 22 23 23 24 23 22 22 23 25
14 14 14 15 17 19 20 21 21 21 22 23 24 25 26 27 27 27 26 25 23 23 24 24 25 25 23 23 23 22 20 20 21 21 21 22 22 22 23 23 24 25
15 14 15 16 18 19 20 20 20 21 21 22 22 22 23 24 24 25 25 24 22 23 24 23 22 23 22 21 21 20 19 19 21 21 21 22 22 21 22 23 24 24
Wind_Direction
2 358 352 348 341 332 329 329 330 330 329 328 326 324 326 327 329 334 335 325 307 294 290 290 290 288 284 279 277 273 266 263 265 264 260 258 257 256 258 260 260 261
1 355 350 345 341 335 333 333 330 328 327 328 328 328 330 329 331 339 347 347 333 315 303 298 297 295 290 284 280 277 272 269 271 271 266 262 261 260 259 262 262 259
344 345 345 343 343 340 339 337 332 329 329 328 326 326 326 327 333 341 346 347 345 336 323 312 306 301 298 296 290 283 277 274 277 276 272 268 267 266 264 265 262 259
345 346 342 340 340 338 336 335 331 331 330 326 326 327 327 330 333 335 337 339 336 331 324 317 311 306 303 301 294 287 282 279 280 278 272 268 268 268 267 264 260 259
345 341 338 337 336 336 334 332 330 330 327 324 327 332 332 330 329 328 328 328 325 323 323 325 324 316 307 303 297 292 290 287 285 280 270 266 268 269 266 263 262 263
340 334 334 333 332 333 331 330 331 331 330 330 331 334 334 331 328 327 327 325 323 323 326 331 334 328 316 309 302 299 296 292 290 282 269 267 272 272 270 267 266 266
335 331 333 333 333 333 332 334 336 335 335 334 331 329 328 326 324 322 322 326 326 325 324 323 322 319 314 311 305 303 302 297 291 281 270 270 274 275 274 272 268 267
332 332 337 339 339 339 337 335 334 332 331 330 328 326 323 321 320 317 316 318 319 317 315 313 313 311 308 309 306 301 302 301 295 285 277 277 278 278 277 275 271 266
330 333 337 338 339 338 335 331 328 328 330 329 328 328 325 322 320 319 317 315 314 312 310 309 311 310 306 305 303 297 295 299 300 293 284 279 278 279 280 278 274 269
329 329 330 331 333 332 331 329 327 327 328 328 328 326 325 323 320 320 320 319 316 313 313 311 310 309 306 303 302 297 290 292 299 298 288 280 276 276 278 277 274 271
320 321 324 326 327 327 327 327 326 326 326 326 327 326 325 323 320 319 320 321 319 316 314 312 309 307 304 301 299 297 292 290 293 296 291 283 277 275 275 274 272 272
316 317 320 323 323 322 322 322 323 324 324 325 325 324 323 321 319 318 317 318 319 316 313 311 309 307 303 300 297 294 292 290 288 289 289 284 279 277 276 275 273 272
314 316 317 320 319 316 316 319 322 323 323 323 323 321 320 319 317 316 315 316 316 314 312 310 308 307 303 300 298 293 290 288 285 286 286 285 281 277 277 277 276 276
309 315 317 317 315 312 313 317 320 322 321 322 322 320 318 317 317 315 314 313 313 311 310 309 306 305 302 300 298 295 292 287 283 284 285 285 283 280 277 276 277 278
302 308 312 313 311 309 312 315 318 321 322 322 323 322 320 317 316 315 313 312 312 310 309 308 305 302 301 301 297 293 291 288 283 283 285 284 283 280 278 276 276 276
297 301 304 306 307 307 311 315 319 322 323 323 323 322 321 320 318 316 315 313 312 310 308 307 305 303 302 301 297 293 292 289 284 282 282 282 280 278 276 277 278 277
292 296 298 299 302 307 312 315 318 320 320 321 321 321 320 320 318 317 316 315 313 310 308 306 305 304 304 302 300 297 293 290 286 283 281 280 279 276 274 275 278 279
288 290 290 293 301 308 312 314 315 315 317 318 318 318 318 316 316 316 316 315 314 310 308 306 305 305 305 304 301 299 296 292 289 285 282 279 278 276 274 274 276 277
287 285 286 295 305 311 314 316 315 312 314 316 317 316 314 311 312 314 315 315 313 310 308 306 305 305 306 305 302 300 297 294 291 288 285 282 280 277 274 272 273 275
284 283 293 301 308 313 315 316 315 312 311 313 314 314 311 309 310 311 313 313 311 309 307 305 304 305 306 306 304 302 299 295 291 289 287 286 284 280 276 273 272 273
279 287 299 303 308 312 313 315 313 311 310 309 310 310 309 308 307 306 308 310 310 309 306 303 303 305 306 306 304 302 301 298 292 289 287 286 286 284 280 276 274 273
280 293 298 301 308 310 311 313 312 309 309 309 308 307 306 305 303 303 304 306 307 307 305 302 304 306 307 306 305 303 301 298 294 290 288 285 285 286 284 279 277 275
287 293 296 301 307 308 309 311 310 308 309 309 306 303 302 301 300 301 303 303 303 304 303 303 305 308 307 307 307 305 302 298 295 293 289 285 284 286 286 284 281 279
298 294 296 302 305 306 309 310 309 308 308 308 306 302 299 299 299 299 301 302 301 302 303 303 304 307 308 307 307 307 303 299 297 295 290 285 283 285 286 286 285 283
309 301 298 301 304 307 309 309 308 307 308 310 310 305 302 301 299 297 299 300 300 302 305 304 305 308 311 309 308 309 305 300 299 296 289 284 284 284 285 286 286 284
314 309 304 305 307 309 310 308 306 305 308 314 318 318 315 311 307 302 300 300 302 304 305 305 306 311 315 313 311 309 306 303 299 293 288 285 284 282 283 285 285 283
Height
803 803 802 802 801 801 800 799 798 797 796 795 795 794 793 792 791 790 789 789 788 788 788 787 787 787 787 787 787 787 788 788 788 788 788 789 789 789 790 790 790 790
803 802 802 801 800 800 799 798 798 797 796 795 794 793 792 791 790 789 788 787 787 786 786 786 786 786 785 785 785 785 785 785 785 786 786 786 786 786 786 786 786 787
803 802 801 800 799 799 798 797 796 796 795 794 793 792 791 790 789 788 788 787 786 785 785 784 784 784 783 783 783 783 783 783 783 783 784 783 783 783 783 783 783 784
802 801 800 800 799 798 797 796 795 794 793 792 792 791 790 789 788 787 787 786 785 785 784 783 782 781 781 781 781 781 780 780 780 781 781 781 781 781 780 781 781 781
801 800 799 799 798 797 796 795 794 793 792 791 790 789 789 788 787 786 785 785 784 784 783 782 781 780 779 779 779 779 779 778 778 778 779 779 778 778 778 778 778 778
800 800 799 798 797 796 796 794 794 793 791 790 789 788 787 786 786 785 784 784 783 782 781 781 780 779 779 779 778 777 777 776 776 776 776 776 775 775 775 776 775 775
800 799 798 798 796 796 795 794 793 792 791 790 788 787 786 785 785 784 783 783 782 781 780 780 779 779 778 778 777 776 775 775 774 774 774 773 773 773 772 773 773 772
799 799 797 797 796 795 794 793 792 791 790 789 788 787 786 784 783 782 781 781 780 779 779 778 778 777 777 776 775 774 774 773 772 772 771 771 770 770 770 770 771 770
799 798 797 796 795 794 794 793 792 791 790 788 787 786 785 783 782 781 780 779 778 777 777 776 776 775 775 774 773 773 772 771 771 770 769 769 768 768 767 767 768 767
799 798 797 796 795 794 793 792 791 790 789 788 786 785 783 782 781 780 779 777 776 775 775 774 774 773 772 772 771 771 770 769 769 768 767 767 766 766 765 765 765 764
798 798 797 795 794 793 792 791 790 789 788 786 785 783 782 781 780 778 777 776 775 774 773 772 771 771 770 770 769 769 768 767 767 766 765 765 764 764 763 763 763 762
798 797 796 795 794 793 792 790 789 788 787 785 784 782 781 779 778 777 776 775 773 772 771 770 769 769 768 767 767 766 765 765 764 763 763 762 762 761 760 760 760 760
796 796 795 794 793 792 791 790 789 787 786 784 783 781 779 778 777 775 774 773 772 770 769 768 767 766 766 765 764 764 763 762 761 761 760 759 759 758 758 757 757 758
795 795 794 793 792 791 790 789 787 786 785 783 782 780 778 777 775 774 772 771 770 769 767 766 765 764 763 763 762 761 760 759 759 758 757 757 756 756 756 755 754 755
795 794 793 792 791 789 789 787 786 785 783 782 780 778 777 775 774 772 771 769 768 766 765 764 763 762 761 760 760 759 758 757 756 756 755 754 754 753 753 752 752 752
794 793 791 791 789 788 787 786 784 783 781 780 778 777 775 774 772 771 769 768 766 764 763 762 761 760 759 758 757 757 756 755 754 753 752 752 751 750 750 749 749 749
792 791 790 789 788 787 786 784 783 782 780 778 777 775 774 772 771 769 767 766 764 762 761 759 758 757 757 756 755 754 754 752 751 750 749 749 748 748 747 747 746 746
791 790 789 788 787 786 785 783 782 780 778 777 775 773 772 770 769 767 765 764 762 760 759 757 756 755 754 754 752 751 751 750 749 748 747 746 746 745 744 744 743 743
789 788 787 787 786 785 783 781 780 778 777 775 773 771 770 768 767 765 763 762 760 758 756 755 754 753 751 751 750 749 748 747 746 745 744 743 743 742 742 741 741 740
787 787 786 785 784 783 781 779 778 776 775 773 771 769 768 766 765 763 761 759 758 756 754 752 751 750 749 748 747 746 745 744 743 742 741 740 740 739 739 738 738 738
786 785 785 783 782 781 779 778 776 775 773 771 769 768 766 764 762 761 759 757 755 754 752 750 748 747 746 745 744 743 742 741 740 739 738 737 736 736 736 735 735 735
785 784 783 781 780 779 777 776 774 772 771 769 767 765 764 762 760 758 757 755 753 752 750 747 746 744 744 742 741 740 739 738 737 736 735 734 733 733 732 732 732 731
783 782 781 779 778 776 775 773 772 770 768 767 765 763 761 760 758 756 755 753 751 749 747 745 743 741 741 739 738 737 736 735 734 733 732 731 730 730 729 729 729 728
781 780 779 777 776 774 773 771 769 768 766 764 763 761 758 757 755 753 752 750 749 747 745 743 740 738 738 737 735 735 733 732 731 730 729 728 727 727 727 726 725 725
779 778 777 775 774 772 770 769 767 766 764 762 760 758 756 754 752 751 749 747 746 744 742 741 739 736 735 734 733 732 731 729 729 727 726 725 724 724 723 722 722 721
777 776 775 773 772 770 769 767 766 764 762 760 758 756 754 752 750 748 746 744 743 742 740 738 737 734 733 731 730 729 728 727 726 725 723 722 721 721 720 719 718 717